Regional Weather Roundup
Issued by NWS

Home | Current Version | Previous Version | Graphics & Text | Print | Product List | Glossary On
Versions: 1 2 3 4 5 6 7 8 9 10 11 12 13 14 15 16 17 18 19 20 21 22 23 24 25 26 27 28 29 30 31 32 33 34 35 36 37 38 39 40 41 42 43 44 45 46 47 48 49 50
000
ASUS44 KMEG 081200
RWRTN
TENNESSEE HOURLY STATE WEATHER ROUNDUP
NATIONAL WEATHER SERVICE MEMPHIS TN
600 AM CST THU DEC 08 2016

TNZ002-004-019-021-049-052-054-088>092-081300-
WEST TENNESSEE

CITY           SKY/WX    TMP DP  RH WIND       PRES   REMARKS
MEMPHIS INTL   CLOUDY    37  26  64 N8        30.41R WCI  31
NWS MEMPHIS      N/A     36 N/A N/A MISG        N/A
JACKSON        CLOUDY    34  25  69 NW7       30.40R WCI  28
DYERSBURG      CLOUDY    32  23  69 N10       30.43R WCI  24
UNION CITY     CLEAR     28  23  80 NW12      30.41R WCI  18
PARIS          CLEAR     28  19  69 VRB6      30.38R WCI  22
LEXINGTON      CLEAR     34  19  55 NW5       30.36R WCI  30
$$

TNZ008-025-027-028-033-062-065-066-081300-
NORTH MIDDLE TENNESSEE

CITY           SKY/WX    TMP DP  RH WIND       PRES   REMARKS
NASHVILLE      PTCLDY    34  20  56 NW6       30.34R WCI  29
CLARKSVILLE    PTCLDY    31  19  61 NW9       30.36R WCI  23
SMYRNA         CLEAR     34  21  59 N9        30.35R WCI  27
CROSSVILLE     PTCLDY    30  18  60 NW9       30.24R WCI  22
$$

TNZ061-075-076-078-094-096-097-081300-
SOUTH MIDDLE TENNESSEE

CITY           SKY/WX    TMP DP  RH WIND       PRES   REMARKS
TULLAHOMA      CLEAR     30  21  69 N12       30.29S WCI  21
WINCHESTER     CLOUDY    34  25  69 VRB3      30.30R
MCMINNVILLE    CLEAR     32  21  64 N7          N/A  WCI  26
SHELBYVILLE    CLEAR     34  25  69 N7        30.33R WCI  28
$$

TNZ017-018-042-046-047-081300-
NORTHEAST TENNESSEE

CITY           SKY/WX    TMP DP  RH WIND       PRES   REMARKS
TRI CITIES     CLOUDY    39  28  64 W5        30.16R
$$

TNZ012-013-036-069-073-074-081300-
CENTRAL EAST TENNESSEE

CITY           SKY/WX    TMP DP  RH WIND       PRES   REMARKS
KNOXVILLE      CLOUDY    39  20  46 N9        30.23R WCI  33
OAK RIDGE      CLOUDY    39  18  42 N9        30.25R WCI  33
GATLINBURG     CLOUDY    37  25  60 W5        30.22R WCI  34
$$

TNZ083-085-099-081300-
SOUTHEAST TENNESSEE

CITY           SKY/WX    TMP DP  RH WIND       PRES   REMARKS
CHATTANOOGA    CLOUDY    40  20  44 N14       30.25R WCI  32
$$

SKY/WX REPORTED AS FAIR MEANS FEW OR NO CLOUDS BELOW
12 THOUSAND FEET.




USA.gov is the U.S. government's official web portal to all federal, state and local government web resources and services.